Regional Weather Roundup
Issued by NWS Newport/Morehead, NC

Current Version | Previous Version | Text Only | Print | Product List | Glossary On
Versions: 1 2 3 4 5 6 7 8 9 10 11 12 13 14 15 16 17 18 19 20 21 22 23 24 25 26 27 28 29 30 31 32 33 34 35 36 37 38 39 40 41 42 43 44 45 46 47 48 49 50
000
ASUS42 KMHX 250913
RWRMHX
WEATHER ROUNDUP FOR EASTERN NORTH CAROLINA
NATIONAL WEATHER SERVICE NEWPORT/MOREHEAD CITY NC
500 AM EDT THU MAY 25 2017

NOTE: "FAIR" INDICATES FEW OR NO CLOUDS BELOW 12,000 FEET
WITH NO SIGNIFICANT WEATHER AND/OR OBSTRUCTIONS TO VISIBILITY

NCZ015>017-031-032-045>047-102-103-251000-
NORTH COAST

CITY           SKY/WX    TMP DP  RH WIND       PRES   REMARKS
EDENTON        CLOUDY    73  69  90 S13       29.52F
ELIZABETH CITY HVY RAIN  70  70 100 S12G23    29.52S FOG
KITTY HAWK     LGT RAIN  71  71 100 SE6       29.52F
MANTEO         CLOUDY    73  70  92 S23G29    29.54F

$$

NCZ045>047-081-094-103-104-251000-
CENTRAL COAST

CITY           SKY/WX    TMP DP  RH WIND       PRES   REMARKS
FRISCO         NOT AVBL

$$

NCZ095-097-098-100-101-251000-
SOUTHERN COAST

CITY           SKY/WX    TMP DP  RH WIND       PRES   REMARKS
BEAUFORT       CLOUDY    75  71  87 SW24G33   29.55R
CEDAR ISLAND   NOT AVBL
JACKSONVILLE   NOT AVBL
PINEY ISLAND   NOT AVBL
WILMINGTON     CLOUDY    72  68  87 SW10      29.55R


$$

NCZ011>013-027>030-043-044-078>080-089-090>093-098-251000-
COASTAL PLAIN

CITY           SKY/WX    TMP DP  RH WIND       PRES   REMARKS
AHOSKIE          N/A     68  67  97 S9        29.51R
CLINTON        CLOUDY    70  69  95 SW5       29.53S
ELIZABETHTOWN  CLOUDY    71  67  89 SW6       29.53F
GOLDSBORO      CLOUDY    70  70 100 S7        29.50S
GREENVILLE     CLOUDY    70  70 100 SW10      29.56R
HAVELOCK       CLOUDY    74  68  81 SW16G26   29.54S
KENANSVILLE    CLOUDY    70  68  94 S5        29.53S
KINSTON        CLOUDY    70  69  96 S8        29.53R
NEW BERN       CLOUDY    69  68  96 SW7       29.54S
RICHLANDS      CLOUDY    69  68  96 SW9       29.54S
ROCKY MOUNT    CLOUDY    69  68  96 S6        29.51R
WASHINGTON     CLOUDY    68  68  98 S7        29.52S
WHITEVILLE     CLOUDY    70  67  91 S7        29.54S

$$

AMZ130-135-150-152-154-156-158-170-250-252-270-ANZ085-086-088-633-658-670-251000-
MARINE OBSERVATIONS

STATION/POSITION TIME  TEMP    WIND        PRES    WAVE   SWELL
                       AIR SEA DIR/SP/G            HT/PER HT/PER
                 (UTC) (F)     (DEG/KT/KT) (MB)    (FT/S) (FT/S)
CHESAPEAKE LIGHT NOT AVBL
64 E VA BEACH    0850   68 64  170/ 12/ 12 1001.5    5/ 8   3/ 8
DUCK             0848   67 65  150/ 10/ 15  999.5
2 E DUCK         0900      65                N/A     5/ 7
OREGON INLET     0848          170/ 18/ 24   N/A
13E OREGON INLT  0848      65                N/A     5/ 8   5/ 8
HATTERAS CG      0848   72 74  180/ 10/ 17 1000.8
DIAMOND BUOY     0850   74 76  200/ 17/ 19 1001.2    6/ 6   2/10
CAPE LOOKOUT     0900   75     220/ 16/ 19 1000.6
BEAUFORT LAB     0848   75 72  220/ 16/ 25  999.8
30 SE NEW RVR IN 0808   76 75  220/ 21/ 29 1000.8
30 SE NEW RVR IN 0843      75                N/A     8/ 7   2/11
27 SE WRIGHTSVLE 0808   75 75  220/ 19/ 27 1000.2
5 SE WRIGHTSVLE  0808   75 74  220/ 14/ 25 1000.5
225 S CAPE HAT   0850   76 77  180/ 27/ 31 1006.6   11/ 8
41 SE CHARLESTON 0850   75 76  230/ 25/ 31 1002.0   11/ 7

$$



USA.gov is the U.S. government's official web portal to all federal, state and local government web resources and services.